Tracking 23731 objects as of 26-Sep-2021
HD Live streaming from Space Station
objects crossing your sky now

STARLINK-1905

Track STARLINK-1905 now!
10-day predictions
STARLINK-1905 is classified as:


NORAD ID: 46746
Int'l Code: 2020-074H
Perigee: 553.0 km
Apogee: 555.7 km
Inclination: 53.1 °
Period: 95.6 minutes
Semi major axis: 6925 km
RCS: Unknown
Launch date: October 24, 2020
Source: United States (US)
Launch site: AIR FORCE EASTERN TEST RANGE (AFETR)
aabbcc
Your satellite tracking list
Your tracking list is empty




NASA's NSSDC Master Catalog

Two Line Element Set (TLE):
1 46746U 20074H   21268.73069747 -.00000304  00000-0 -15298-5 0  9991
2 46746  53.0558  60.8225 0001921  92.3963 267.7246 15.06391167 51608
Source of the keplerian elements: AFSPC